Regional Weather Roundup
Issued by NWS

Home | Current Version | Previous Version | Graphics & Text | Print | Product List | Glossary On
Versions: 1 2 3 4 5 6 7 8 9 10 11 12 13 14 15 16 17 18 19 20 21 22 23 24 25 26 27 28 29 30 31 32 33 34 35 36 37 38 39 40 41 42 43 44 45 46 47 48 49 50
000
ASUS43 KOAX 260702
RWRNE

WEATHER ROUNDUP FOR NEBRASKA
NATIONAL WEATHER SERVICE OMAHA NE
200 AM CDT TUE JUL 26 2016

NOTES: SATELLITE DATA IS BEING USED TO AUGMENT CLOUD COVER ABOVE
       12000 FEET.
       "FAIR" INDICATES FEW OR NO CLOUDS BELOW 12,000 FEET WITH NO
       SIGNIFICANT WEATHER AND/OR OBSTRUCTIONS TO VISIBILITY.

  * THESE STATIONS DO NOT REPORT WEATHER SUCH AS RAIN...SNOW OR FOG.

NEZ001>004-019>022-054>056-260800-
NEBRASKA PANHANDLE

CITY           SKY/WX    TMP DP  RH WIND       PRES   REMARKS
SCOTTSBLUFF    CLEAR     69  62  78 E10       30.09F
ALLIANCE       CLEAR     67  62  84 SE9       30.11S
CHADRON        CLEAR     78  61  55 S23G32    30.03F
KIMBALL        CLEAR     67  63  86 SE13      30.16F
SIDNEY         CLEAR     70  62  76 S16       30.14F
$$

NEZ057>060-069>072-079>082-260800-
SOUTHWEST NEBRASKA

CITY           SKY/WX    TMP DP  RH WIND       PRES   REMARKS
NORTH PLATTE   CLEAR     71  64  78 SE7       30.12R
IMPERIAL       CLEAR     69  63  81 S12       30.11F
LEXINGTON      CLEAR     69  61  76 SE8       30.12S
MCCOOK         MOCLDY    71  64  78 S3        30.11F
OGALLALA       CLEAR     70  63  78 NE6       30.11F
$$

NEZ005>010-023>029-035>040-094-260800-
NORTH CENTRAL NEBRASKA

CITY           SKY/WX    TMP DP  RH WIND       PRES   REMARKS
VALENTINE      CLEAR     74  62  66 S15G24    30.08F
AINSWORTH      CLEAR     70  62  77 S9        30.10F
BROKEN BOW     CLEAR     66  63  90 SE5       30.12F
O`NEILL        CLEAR     67  62  82 S8        30.11F
ORD            CLEAR     67  61  81 CALM      30.11S
THEDFORD       CLEAR     70  66  86 SE9       30.12F
$$

NEZ041-046>049-061>064-073>077-083>087-260800-
SOUTH CENTRAL NEBRASKA

CITY           SKY/WX    TMP DP  RH WIND       PRES   REMARKS
GRAND ISLAND   CLEAR     69  62  78 SE7       30.12F
AURORA         CLEAR     66  64  93 S3        30.12F
HASTINGS       CLEAR     70  61  73 S6        30.13F
HEBRON         CLEAR     62  60  92 CALM      30.11F
HOLDREGE       CLEAR     65  60  85 SE6       30.12F
KEARNEY *      CLEAR     66  61  82 SE8       30.12F
YORK           CLEAR     66  63  88 CALM      30.12F
$$

NEZ011>018-030>034-042>045-260800-
NORTHEAST NEBRASKA

CITY           SKY/WX    TMP DP  RH WIND       PRES   REMARKS
NORFOLK        CLEAR     68  62  81 S6        30.11S
ALBION         CLEAR     65  60  85 CALM      30.12F
BLAIR          PTCLDY    73  65  78 CALM      30.10S
FREMONT        CLEAR     67  65  90 CALM      30.11S
TEKAMAH        CLEAR     66  63  90 CALM      30.10R
WAYNE          CLEAR     64  62  94 S5        30.12S
$$

NEZ050>053-065>068-078-088>093-260800-
SOUTHEAST NEBRASKA

CITY           SKY/WX    TMP DP  RH WIND       PRES   REMARKS
LINCOLN        PTCLDY    66  63  90 N5        30.10F
OMAHA EPPLEY   PTCLDY    71  66  84 CALM      30.09S
BEATRICE       CLEAR     64  62  92 CALM      30.10S
FALLS CITY     PTCLDY    70  67  90 CALM      30.07S
NEBRASKA CITY  MOCLDY    73  65  76 CALM      30.09F
PLATTSMOUTH    CLEAR     69  67  93 CALM      30.10S
$$

NEZ044-045-051>053-067-260800-
OMAHA AREA

CITY           SKY/WX    TMP DP  RH WIND       PRES   REMARKS
OMAHA EPPLEY   PTCLDY    71  66  84 CALM      30.09S
BLAIR          PTCLDY    73  65  78 CALM      30.10S
FREMONT        CLEAR     67  65  90 CALM      30.11S
MILLARD        PTCLDY    69  67  94 CALM      30.09S
OFFUTT AFB     CLEAR     65  65 100 CALM      30.08F
PLATTSMOUTH    CLEAR     69  67  93 CALM      30.10S
WAHOO          FAIR      65  64  93 CALM      30.10F
$$




USA.gov is the U.S. government's official web portal to all federal, state and local government web resources and services.